CDT,Max TemperatureF,Mean TemperatureF,Min TemperatureF,Max Dew PointF,MeanDew PointF,Min DewpointF,Max Humidity, Mean Humidity, Min Humidity, Max Sea Level PressureIn, Mean Sea Level PressureIn, Min Sea Level PressureIn, Max VisibilityMiles, Mean VisibilityMiles, Min VisibilityMiles, Max Wind SpeedMPH, Mean Wind SpeedMPH, Max Gust SpeedMPH,PrecipitationIn, CloudCover, Events, WindDirDegrees
2013-9-1,90,78,66,76,66,59,98,72,41,29.91,29.84,29.81,10,7,0,13,4,18,0.00,3,Fog,295
2013-9-2,81,70,60,64,58,49,91,69,33,30.04,29.98,29.91,10,10,10,13,6,20,0.00,1,,335
2013-9-3,80,66,52,60,55,50,94,75,39,30.13,30.08,30.04,10,10,10,7,3,,0.00,1,,342
2013-9-4,86,68,51,66,55,45,92,67,23,30.19,30.15,30.09,10,10,10,5,1,,0.00,0,,278
2013-9-5,89,74,60,68,62,53,91,68,32,30.23,30.19,30.16,10,10,10,7,2,,0.00,0,,159
2013-9-6,88,74,59,66,62,58,96,70,38,30.21,30.14,30.04,10,10,7,9,4,,0.00,0,,150
2013-9-7,92,78,64,72,65,61,89,67,41,30.05,29.99,29.91,10,10,7,10,5,16,0.00,1,Rain,199
2013-9-8,87,80,72,73,71,67,96,78,59,29.99,29.94,29.89,10,10,7,23,8,34,0.03,5,Rain-Thunderstorm,136
2013-9-9,99,86,73,72,67,60,94,61,28,29.96,29.91,29.87,10,8,2,14,6,21,0.00,0,,208
2013-9-10,97,84,72,67,63,57,75,52,27,30.07,30.03,29.96,10,10,10,15,7,24,0.00,0,,219
2013-9-11,96,84,73,68,65,61,83,59,32,30.12,30.08,30.05,10,10,10,15,6,20,0.00,2,Thunderstorm,264
2013-9-12,84,72,60,71,58,41,97,64,23,30.14,30.09,30.06,10,10,4,23,9,30,0.21,3,Rain,314
2013-9-13,73,60,47,53,46,33,89,64,24,30.23,30.17,30.13,10,10,10,14,6,21,0.00,0,,24
2013-9-14,74,58,42,50,45,40,95,67,29,30.22,30.14,30.04,10,10,10,7,2,,0.00,0,,151
2013-9-15,70,62,54,65,55,47,94,76,57,30.21,30.05,30.00,10,10,3,12,6,16,0.09,6,Rain,202
2013-9-16,72,61,50,57,54,49,94,80,49,30.36,30.29,30.21,10,10,10,14,7,17,0.01,5,,52
2013-9-17,72,60,48,62,56,48,97,81,62,30.32,30.22,30.10,10,9,3,9,4,,0.00,4,Rain,129
2013-9-18,89,75,61,70,65,59,91,73,48,30.10,30.00,29.92,10,9,7,14,6,21,0.00,4,,174
2013-9-19,94,81,68,69,67,62,98,67,37,29.97,29.91,29.80,10,9,1,24,9,31,1.38,3,Rain-Thunderstorm,197
2013-9-20,74,64,55,69,59,48,98,79,41,29.96,29.92,29.87,10,9,2,15,7,21,0.03,4,Rain,281
2013-9-21,72,61,50,52,49,44,94,72,37,30.00,29.96,29.93,10,10,10,13,6,18,0.00,0,,314
2013-9-22,74,58,44,53,48,44,97,75,38,30.08,30.01,29.97,10,10,0,8,2,,0.00,0,Fog,103
2013-9-23,77,60,43,53,48,43,97,71,34,30.08,30.02,29.97,10,10,7,10,4,18,0.00,0,,116
2013-9-24,79,62,45,58,53,44,96,74,45,30.00,29.93,29.86,10,10,7,12,4,,0.00,3,,94
2013-9-25,81,68,54,60,56,52,92,71,43,29.95,29.91,29.88,10,10,7,12,6,17,0.00,1,,63
2013-9-26,86,68,52,61,56,51,95,70,36,30.05,30.01,29.94,10,9,3,9,5,16,0.00,1,,121
2013-9-27,85,69,53,60,55,50,93,63,30,30.13,30.07,30.02,10,10,7,15,5,20,0.00,1,,144
2013-9-28,83,71,58,70,60,55,93,78,47,30.06,30.00,29.94,10,10,4,18,6,31,0.03,5,Rain,189
2013-9-29,74,60,46,57,47,36,99,71,26,30.12,30.06,30.02,10,8,0,8,4,,0.01,1,Fog,353
2013-9-30,79,60,42,59,49,41,96,70,33,30.02,29.95,29.89,10,9,3,12,3,17,0.00,0,,178